Time,TemperatureF,DewpointF,PressureIn,WindDirection,WindDirectionDegrees,WindSpeedMPH,WindSpeedGustMPH,Humidity,HourlyPrecipIn,Conditions,Clouds,dailyrainin,SoftwareType,DateUTC
2013-05-19 00:01:00,59.1,50.8,30.27,ESE,107,2.0,3.0,74,0.00,,,0.00,Wunderground v.1.15,2013-05-19 04:01:00,
2013-05-19 00:02:00,59.1,50.8,30.27,ESE,119,2.0,3.0,74,0.00,,,0.00,Wunderground v.1.15,2013-05-19 04:02:00,
2013-05-19 00:07:00,59.0,50.7,30.27,ESE,106,2.0,6.0,74,0.00,,,0.00,Wunderground v.1.15,2013-05-19 04:07:00,
2013-05-19 00:12:00,59.0,50.7,30.27,ESE,102,2.0,5.0,74,0.00,,,0.00,Wunderground v.1.15,2013-05-19 04:12:00,
2013-05-19 00:18:00,58.9,50.6,30.27,WSW,255,1.0,5.0,74,0.00,,,0.00,Wunderground v.1.15,2013-05-19 04:18:00,
2013-05-19 00:22:00,58.8,50.9,30.27,ESE,114,1.0,1.0,75,0.00,,,0.00,Wunderground v.1.15,2013-05-19 04:22:00,
2013-05-19 00:27:00,58.7,50.8,30.27,East,91,1.0,4.0,75,0.00,,,0.00,Wunderground v.1.15,2013-05-19 04:27:00,
2013-05-19 00:32:00,58.6,50.7,30.27,ESE,105,1.0,7.0,75,0.00,,,0.00,Wunderground v.1.15,2013-05-19 04:32:00,
2013-05-19 00:38:00,58.7,50.8,30.27,SE,141,2.0,7.0,75,0.00,,,0.00,Wunderground v.1.15,2013-05-19 04:38:00,
2013-05-19 00:43:00,58.6,51.1,30.27,ESE,107,2.0,2.0,76,0.00,,,0.00,Wunderground v.1.15,2013-05-19 04:43:00,
2013-05-19 00:48:00,58.6,51.1,30.27,WSW,245,2.0,5.0,76,0.00,,,0.00,Wunderground v.1.15,2013-05-19 04:48:00,
2013-05-19 00:54:00,58.7,51.2,30.27,SE,129,2.0,3.0,76,0.00,,,0.00,Wunderground v.1.15,2013-05-19 04:54:00,
2013-05-19 01:01:00,58.6,51.1,30.26,ESE,120,1.0,1.0,76,0.00,,,0.00,Wunderground v.1.15,2013-05-19 05:01:00,
2013-05-19 01:07:00,58.7,51.2,30.26,SSE,148,1.0,5.0,76,0.00,,,0.00,Wunderground v.1.15,2013-05-19 05:07:00,
2013-05-19 01:12:00,58.8,51.2,30.26,SSE,149,2.0,4.0,76,0.00,,,0.00,Wunderground v.1.15,2013-05-19 05:12:00,
2013-05-19 01:18:00,58.8,51.2,30.26,ESE,103,2.0,4.0,76,0.00,,,0.00,Wunderground v.1.15,2013-05-19 05:18:00,
2013-05-19 01:23:00,58.8,51.2,30.26,East,100,2.0,3.0,76,0.00,,,0.00,Wunderground v.1.15,2013-05-19 05:23:00,
2013-05-19 01:28:00,58.8,51.2,30.26,SE,134,2.0,4.0,76,0.00,,,0.00,Wunderground v.1.15,2013-05-19 05:28:00,
2013-05-19 01:34:00,58.7,51.5,30.26,East,82,2.0,2.0,77,0.00,,,0.00,Wunderground v.1.15,2013-05-19 05:34:00,
2013-05-19 01:39:00,58.6,51.4,30.26,SE,145,2.0,4.0,77,0.00,,,0.00,Wunderground v.1.15,2013-05-19 05:39:00,
2013-05-19 01:44:00,58.6,51.4,30.26,ESE,103,2.0,6.0,77,0.00,,,0.00,Wunderground v.1.15,2013-05-19 05:44:00,
2013-05-19 01:50:00,58.6,51.4,30.26,West,271,2.0,6.0,77,0.00,,,0.00,Wunderground v.1.15,2013-05-19 05:50:00,
2013-05-19 01:55:00,58.6,51.8,30.25,West,276,1.0,3.0,78,0.00,,,0.00,Wunderground v.1.15,2013-05-19 05:55:00,
2013-05-19 02:01:00,58.4,51.6,30.25,SE,129,1.0,1.0,78,0.00,,,0.00,Wunderground v.1.15,2013-05-19 06:01:00,
2013-05-19 02:07:00,58.4,51.6,30.26,South,173,1.0,2.0,78,0.00,,,0.00,Wunderground v.1.15,2013-05-19 06:07:00,
2013-05-19 02:12:00,58.3,51.5,30.26,ESE,103,1.0,3.0,78,0.00,,,0.00,Wunderground v.1.15,2013-05-19 06:12:00,
2013-05-19 02:17:00,58.2,51.7,30.26,ESE,110,1.0,3.0,79,0.00,,,0.00,Wunderground v.1.15,2013-05-19 06:17:00,
2013-05-19 02:22:00,58.2,51.7,30.25,ESE,116,1.0,2.0,79,0.00,,,0.00,Wunderground v.1.15,2013-05-19 06:22:00,
2013-05-19 02:28:00,58.2,51.7,30.25,NW,306,1.0,2.0,79,0.00,,,0.00,Wunderground v.1.15,2013-05-19 06:28:00,
2013-05-19 02:33:00,58.2,51.7,30.25,ESE,121,1.0,4.0,79,0.00,,,0.00,Wunderground v.1.15,2013-05-19 06:33:00,
2013-05-19 02:38:00,58.2,51.7,30.25,SSE,152,2.0,4.0,79,0.00,,,0.00,Wunderground v.1.15,2013-05-19 06:38:00,
2013-05-19 02:44:00,58.2,51.7,30.25,SSE,158,2.0,2.0,79,0.00,,,0.00,Wunderground v.1.15,2013-05-19 06:44:00,
2013-05-19 02:49:00,58.2,51.7,30.25,SE,139,1.0,2.0,79,0.00,,,0.00,Wunderground v.1.15,2013-05-19 06:49:00,
2013-05-19 02:54:00,58.1,51.6,30.25,East,101,1.0,4.0,79,0.00,,,0.00,Wunderground v.1.15,2013-05-19 06:54:00,
2013-05-19 03:01:00,58.1,51.6,30.24,ENE,69,1.0,1.0,79,0.00,,,0.00,Wunderground v.1.15,2013-05-19 07:01:00,
2013-05-19 03:07:00,58.0,51.9,30.25,SSE,158,0.0,2.0,80,0.00,,,0.00,Wunderground v.1.15,2013-05-19 07:07:00,
2013-05-19 03:12:00,58.0,51.9,30.24,WSW,237,1.0,1.0,80,0.00,,,0.00,Wunderground v.1.15,2013-05-19 07:12:00,
2013-05-19 03:17:00,57.9,51.8,30.24,SE,143,0.0,2.0,80,0.00,,,0.00,Wunderground v.1.15,2013-05-19 07:17:00,
2013-05-19 03:23:00,57.9,51.8,30.24,SSW,193,1.0,1.0,80,0.00,,,0.00,Wunderground v.1.15,2013-05-19 07:23:00,
2013-05-19 03:28:00,57.9,51.8,30.24,WSW,237,1.0,2.0,80,0.00,,,0.00,Wunderground v.1.15,2013-05-19 07:28:00,
2013-05-19 03:33:00,57.9,51.8,30.24,East,98,1.0,1.0,80,0.00,,,0.00,Wunderground v.1.15,2013-05-19 07:33:00,
2013-05-19 03:39:00,57.9,51.8,30.24,SSE,148,1.0,1.0,80,0.00,,,0.00,Wunderground v.1.15,2013-05-19 07:39:00,
2013-05-19 03:44:00,57.9,51.8,30.24,ESE,115,1.0,3.0,80,0.00,,,0.00,Wunderground v.1.15,2013-05-19 07:44:00,
2013-05-19 03:50:00,57.9,51.8,30.24,ESE,103,1.0,4.0,80,0.00,,,0.00,Wunderground v.1.15,2013-05-19 07:50:00,
2013-05-19 03:55:00,57.9,51.8,30.24,WNW,299,1.0,4.0,80,0.00,,,0.00,Wunderground v.1.15,2013-05-19 07:55:00,
2013-05-19 04:02:00,57.8,51.7,30.24,ESE,120,1.0,1.0,80,0.00,,,0.00,Wunderground v.1.15,2013-05-19 08:02:00,
2013-05-19 04:07:00,57.8,51.7,30.24,SSE,156,1.0,2.0,80,0.00,,,0.00,Wunderground v.1.15,2013-05-19 08:07:00,
2013-05-19 04:13:00,57.8,51.7,30.24,East,84,1.0,2.0,80,0.00,,,0.00,Wunderground v.1.15,2013-05-19 08:13:00,
2013-05-19 04:18:00,57.9,51.8,30.24,SSE,160,1.0,2.0,80,0.00,,,0.00,Wunderground v.1.15,2013-05-19 08:18:00,
2013-05-19 04:23:00,58.0,51.9,30.24,SE,130,1.0,2.0,80,0.00,,,0.00,Wunderground v.1.15,2013-05-19 08:23:00,
2013-05-19 04:29:00,58.0,51.9,30.24,SE,140,1.0,3.0,80,0.00,,,0.00,Wunderground v.1.15,2013-05-19 08:29:00,
2013-05-19 04:35:00,58.1,52.0,30.24,SE,128,1.0,1.0,80,0.00,,,0.00,Wunderground v.1.15,2013-05-19 08:35:00,
2013-05-19 04:41:00,58.2,51.7,30.24,South,185,1.0,2.0,79,0.00,,,0.00,Wunderground v.1.15,2013-05-19 08:41:00,
2013-05-19 04:46:00,58.3,51.8,30.24,East,82,1.0,5.0,79,0.00,,,0.00,Wunderground v.1.15,2013-05-19 08:46:00,
2013-05-19 04:51:00,58.4,51.9,30.24,East,94,2.0,5.0,79,0.00,,,0.00,Wunderground v.1.15,2013-05-19 08:51:00,
2013-05-19 04:57:00,58.5,51.7,30.24,ESE,113,2.0,4.0,78,0.00,,,0.00,Wunderground v.1.15,2013-05-19 08:57:00,
2013-05-19 05:03:00,58.5,51.7,30.24,East,101,2.0,8.0,78,0.00,,,0.00,Wunderground v.1.15,2013-05-19 09:03:00,
2013-05-19 05:08:00,58.5,51.7,30.24,SE,140,2.0,8.0,78,0.00,,,0.00,Wunderground v.1.15,2013-05-19 09:08:00,
2013-05-19 05:14:00,58.5,51.7,30.24,SSW,212,2.0,3.0,78,0.00,,,0.00,Wunderground v.1.15,2013-05-19 09:14:00,
2013-05-19 05:19:00,58.5,51.7,30.24,ESE,104,2.0,3.0,78,0.00,,,0.00,Wunderground v.1.15,2013-05-19 09:19:00,
2013-05-19 05:24:00,58.5,51.7,30.24,SW,230,1.0,2.0,78,0.00,,,0.00,Wunderground v.1.15,2013-05-19 09:24:00,
2013-05-19 05:30:00,58.5,51.7,30.24,ENE,70,1.0,2.0,78,0.00,,,0.00,Wunderground v.1.15,2013-05-19 09:30:00,
2013-05-19 05:36:00,58.6,51.8,30.24,WSW,244,1.0,2.0,78,0.00,,,0.00,Wunderground v.1.15,2013-05-19 09:36:00,
2013-05-19 05:41:00,58.6,51.8,30.25,ESE,115,1.0,4.0,78,0.00,,,0.00,Wunderground v.1.15,2013-05-19 09:41:00,
2013-05-19 05:47:00,58.6,51.8,30.24,West,278,2.0,3.0,78,0.00,,,0.00,Wunderground v.1.15,2013-05-19 09:47:00,
2013-05-19 05:52:00,58.7,51.9,30.24,East,99,2.0,5.0,78,0.00,,,0.00,Wunderground v.1.15,2013-05-19 09:52:00,
2013-05-19 05:57:00,58.8,52.3,30.24,SE,137,2.0,5.0,79,0.00,,,0.00,Wunderground v.1.15,2013-05-19 09:57:00,
2013-05-19 06:03:00,58.8,52.0,30.24,ESE,103,2.0,3.0,78,0.00,,,0.00,Wunderground v.1.15,2013-05-19 10:03:00,
2013-05-19 06:09:00,58.9,52.1,30.25,ESE,112,2.0,3.0,78,0.00,,,0.00,Wunderground v.1.15,2013-05-19 10:09:00,
2013-05-19 06:14:00,59.0,52.1,30.25,ESE,103,2.0,4.0,78,0.00,,,0.00,Wunderground v.1.15,2013-05-19 10:14:00,
2013-05-19 06:20:00,59.0,52.5,30.24,SSE,161,2.0,4.0,79,0.00,,,0.00,Wunderground v.1.15,2013-05-19 10:20:00,
2013-05-19 06:25:00,59.0,52.5,30.24,SE,127,2.0,3.0,79,0.00,,,0.00,Wunderground v.1.15,2013-05-19 10:25:00,
2013-05-19 06:30:00,59.1,52.6,30.24,ESE,122,2.0,3.0,79,0.00,,,0.00,Wunderground v.1.15,2013-05-19 10:30:00,
2013-05-19 06:35:00,59.1,52.6,30.24,East,98,1.0,2.0,79,0.00,,,0.00,Wunderground v.1.15,2013-05-19 10:35:00,
2013-05-19 06:41:00,59.2,52.7,30.24,SW,228,1.0,7.0,79,0.00,,,0.00,Wunderground v.1.15,2013-05-19 10:41:00,
2013-05-19 06:46:00,59.3,52.8,30.25,SW,236,2.0,3.0,79,0.00,,,0.00,Wunderground v.1.15,2013-05-19 10:46:00,
2013-05-19 06:52:00,59.4,52.9,30.25,ENE,73,2.0,3.0,79,0.00,,,0.00,Wunderground v.1.15,2013-05-19 10:52:00,
2013-05-19 06:57:00,59.5,53.0,30.25,SW,218,1.0,4.0,79,0.00,,,0.00,Wunderground v.1.15,2013-05-19 10:57:00,
2013-05-19 07:02:00,59.5,53.0,30.25,West,263,2.0,2.0,79,0.00,,,0.00,Wunderground v.1.15,2013-05-19 11:02:00,
2013-05-19 07:08:00,59.6,53.4,30.25,ESE,105,1.0,2.0,80,0.00,,,0.00,Wunderground v.1.15,2013-05-19 11:08:00,
2013-05-19 07:13:00,59.7,53.2,30.25,ESE,108,1.0,3.0,79,0.00,,,0.00,Wunderground v.1.15,2013-05-19 11:13:00,
2013-05-19 07:18:00,59.7,53.2,30.25,South,191,2.0,4.0,79,0.00,,,0.00,Wunderground v.1.15,2013-05-19 11:18:00,
2013-05-19 07:23:00,59.7,53.5,30.26,ESE,121,2.0,2.0,80,0.00,,,0.00,Wunderground v.1.15,2013-05-19 11:23:00,
2013-05-19 07:29:00,59.7,53.5,30.26,ESE,117,2.0,3.0,80,0.00,,,0.00,Wunderground v.1.15,2013-05-19 11:29:00,
2013-05-19 07:34:00,59.7,53.5,30.26,East,101,1.0,2.0,80,0.00,,,0.00,Wunderground v.1.15,2013-05-19 11:34:00,
2013-05-19 07:40:00,59.7,53.5,30.26,East,101,1.0,4.0,80,0.00,,,0.00,Wunderground v.1.15,2013-05-19 11:40:00,
2013-05-19 07:45:00,59.8,53.6,30.26,East,87,2.0,2.0,80,0.00,,,0.00,Wunderground v.1.15,2013-05-19 11:45:00,
2013-05-19 07:51:00,59.9,54.1,30.26,East,91,2.0,2.0,81,0.00,,,0.00,Wunderground v.1.15,2013-05-19 11:51:00,
2013-05-19 07:56:00,60.0,54.2,30.26,WNW,302,1.0,2.0,81,0.00,,,0.00,Wunderground v.1.15,2013-05-19 11:56:00,
2013-05-19 08:02:00,60.0,54.2,30.26,ESE,105,1.0,1.0,81,0.00,,,0.00,Wunderground v.1.15,2013-05-19 12:02:00,
2013-05-19 08:07:00,60.0,54.2,30.26,West,259,1.0,3.0,81,0.00,,,0.00,Wunderground v.1.15,2013-05-19 12:07:00,
2013-05-19 08:13:00,60.1,54.2,30.26,East,91,1.0,2.0,81,0.00,,,0.00,Wunderground v.1.15,2013-05-19 12:13:00,
2013-05-19 08:18:00,60.2,54.3,30.26,South,172,2.0,3.0,81,0.00,,,0.00,Wunderground v.1.15,2013-05-19 12:18:00,
2013-05-19 08:24:00,60.2,54.3,30.26,SSE,166,2.0,5.0,81,0.00,,,0.00,Wunderground v.1.15,2013-05-19 12:24:00,
2013-05-19 08:29:00,60.3,54.4,30.26,East,92,3.0,5.0,81,0.00,,,0.00,Wunderground v.1.15,2013-05-19 12:29:00,
2013-05-19 08:34:00,60.4,54.9,30.26,East,98,2.0,2.0,82,0.00,,,0.00,Wunderground v.1.15,2013-05-19 12:34:00,
2013-05-19 08:40:00,60.5,54.6,30.26,ESE,118,2.0,3.0,81,0.00,,,0.00,Wunderground v.1.15,2013-05-19 12:40:00,
2013-05-19 08:46:00,60.6,54.7,30.27,East,84,2.0,2.0,81,0.00,,,0.00,Wunderground v.1.15,2013-05-19 12:46:00,
2013-05-19 08:51:00,60.8,54.9,30.26,West,273,1.0,2.0,81,0.00,,,0.00,Wunderground v.1.15,2013-05-19 12:51:00,
2013-05-19 08:57:00,61.0,55.1,30.26,East,92,1.0,7.0,81,0.00,,,0.00,Wunderground v.1.15,2013-05-19 12:57:00,
2013-05-19 09:02:00,61.1,55.2,30.26,ESE,108,2.0,2.0,81,0.00,,,0.00,Wunderground v.1.15,2013-05-19 13:02:00,
2013-05-19 09:08:00,61.1,55.2,30.26,SE,131,2.0,4.0,81,0.00,,,0.00,Wunderground v.1.15,2013-05-19 13:08:00,
2013-05-19 09:13:00,61.2,55.3,30.26,West,264,2.0,3.0,81,0.00,,,0.00,Wunderground v.1.15,2013-05-19 13:13:00,
2013-05-19 09:19:00,61.3,55.4,30.26,SE,127,2.0,5.0,81,0.00,,,0.00,Wunderground v.1.15,2013-05-19 13:19:00,
2013-05-19 09:24:00,61.6,55.4,30.26,East,91,2.0,4.0,80,0.00,,,0.00,Wunderground v.1.15,2013-05-19 13:24:00,
2013-05-19 09:30:00,61.8,55.6,30.26,SSE,148,2.0,4.0,80,0.00,,,0.00,Wunderground v.1.15,2013-05-19 13:30:00,
2013-05-19 09:35:00,62.2,56.0,30.26,East,83,2.0,3.0,80,0.00,,,0.00,Wunderground v.1.15,2013-05-19 13:35:00,
2013-05-19 09:41:00,62.4,55.8,30.26,SE,134,2.0,4.0,79,0.00,,,0.00,Wunderground v.1.15,2013-05-19 13:41:00,
2013-05-19 09:46:00,62.4,55.8,30.26,SSE,147,2.0,9.0,79,0.00,,,0.00,Wunderground v.1.15,2013-05-19 13:46:00,
2013-05-19 09:52:00,62.4,55.8,30.26,South,181,2.0,2.0,79,0.00,,,0.00,Wunderground v.1.15,2013-05-19 13:52:00,
2013-05-19 09:57:00,62.5,55.9,30.26,East,94,2.0,5.0,79,0.00,,,0.00,Wunderground v.1.15,2013-05-19 13:57:00,
2013-05-19 10:03:00,62.3,56.0,30.26,SE,127,3.0,3.0,80,0.00,,,0.00,Wunderground v.1.15,2013-05-19 14:03:00,
2013-05-19 10:08:00,62.3,56.0,30.26,SE,134,3.0,3.0,80,0.00,,,0.00,Wunderground v.1.15,2013-05-19 14:08:00,
2013-05-19 10:14:00,62.3,56.0,30.25,SE,127,3.0,5.0,80,0.00,,,0.00,Wunderground v.1.15,2013-05-19 14:14:00,
2013-05-19 10:19:00,62.4,56.1,30.25,WNW,291,3.0,7.0,80,0.00,,,0.00,Wunderground v.1.15,2013-05-19 14:19:00,
2013-05-19 10:24:00,62.6,56.3,30.25,ESE,110,2.0,5.0,80,0.00,,,0.00,Wunderground v.1.15,2013-05-19 14:24:00,
2013-05-19 10:30:00,62.8,56.2,30.25,WSW,237,2.0,5.0,79,0.00,,,0.00,Wunderground v.1.15,2013-05-19 14:30:00,
2013-05-19 10:35:00,62.9,56.3,30.25,East,91,2.0,7.0,79,0.00,,,0.00,Wunderground v.1.15,2013-05-19 14:35:00,
2013-05-19 10:41:00,63.2,56.6,30.25,ESE,103,3.0,7.0,79,0.00,,,0.00,Wunderground v.1.15,2013-05-19 14:41:00,
2013-05-19 10:46:00,63.2,56.6,30.24,ESE,117,3.0,7.0,79,0.00,,,0.00,Wunderground v.1.15,2013-05-19 14:46:00,
2013-05-19 10:52:00,63.8,56.8,30.24,ESE,111,3.0,3.0,78,0.00,,,0.00,Wunderground v.1.15,2013-05-19 14:52:00,
2013-05-19 10:57:00,64.6,57.2,30.24,ESE,107,2.0,5.0,77,0.00,,,0.00,Wunderground v.1.15,2013-05-19 14:57:00,
2013-05-19 11:03:00,64.9,57.2,30.24,SSW,196,2.0,3.0,76,0.00,,,0.00,Wunderground v.1.15,2013-05-19 15:03:00,
2013-05-19 11:08:00,64.9,57.2,30.24,SSW,210,3.0,5.0,76,0.00,,,0.00,Wunderground v.1.15,2013-05-19 15:08:00,
2013-05-19 11:14:00,65.0,57.2,30.24,ESE,107,3.0,7.0,76,0.00,,,0.00,Wunderground v.1.15,2013-05-19 15:14:00,
2013-05-19 11:19:00,65.0,57.2,30.23,SE,130,3.0,7.0,76,0.00,,,0.00,Wunderground v.1.15,2013-05-19 15:19:00,
2013-05-19 11:25:00,65.6,57.8,30.23,ESE,112,2.0,7.0,76,0.00,,,0.00,Wunderground v.1.15,2013-05-19 15:25:00,
2013-05-19 11:30:00,65.6,57.5,30.23,SW,222,2.0,7.0,75,0.00,,,0.00,Wunderground v.1.15,2013-05-19 15:30:00,
2013-05-19 11:36:00,66.4,58.2,30.22,ESE,121,2.0,3.0,75,0.00,,,0.00,Wunderground v.1.15,2013-05-19 15:36:00,
2013-05-19 11:41:00,66.4,57.9,30.22,ESE,115,2.0,7.0,74,0.00,,,0.00,Wunderground v.1.15,2013-05-19 15:41:00,
2013-05-19 11:47:00,66.6,58.1,30.22,East,101,2.0,7.0,74,0.00,,,0.00,Wunderground v.1.15,2013-05-19 15:47:00,
2013-05-19 11:53:00,66.7,57.8,30.22,ESE,110,3.0,6.0,73,0.00,,,0.00,Wunderground v.1.15,2013-05-19 15:53:00,
2013-05-19 11:59:00,66.8,57.5,30.22,East,98,3.0,11.0,72,0.00,,,0.00,Wunderground v.1.15,2013-05-19 15:59:00,
2013-05-19 12:05:00,66.6,57.7,30.22,East,94,3.0,5.0,73,0.00,,,0.00,Wunderground v.1.15,2013-05-19 16:05:00,
2013-05-19 12:10:00,66.9,57.6,30.21,ESE,103,3.0,5.0,72,0.00,,,0.00,Wunderground v.1.15,2013-05-19 16:10:00,
2013-05-19 12:16:00,67.1,58.2,30.21,WNW,301,3.0,4.0,73,0.00,,,0.00,Wunderground v.1.15,2013-05-19 16:16:00,
2013-05-19 12:21:00,68.1,58.3,30.21,ESE,110,2.0,4.0,71,0.00,,,0.00,Wunderground v.1.15,2013-05-19 16:21:00,
2013-05-19 12:27:00,68.3,58.1,30.21,ESE,114,2.0,5.0,70,0.00,,,0.00,Wunderground v.1.15,2013-05-19 16:27:00,
2013-05-19 12:33:00,68.4,58.2,30.21,SE,129,2.0,5.0,70,0.00,,,0.00,Wunderground v.1.15,2013-05-19 16:33:00,
2013-05-19 12:38:00,68.1,58.3,30.21,ESE,110,3.0,9.0,71,0.00,,,0.00,Wunderground v.1.15,2013-05-19 16:38:00,
2013-05-19 12:44:00,68.2,58.4,30.21,ENE,75,3.0,5.0,71,0.00,,,0.00,Wunderground v.1.15,2013-05-19 16:44:00,
2013-05-19 12:49:00,68.5,57.9,30.20,ESE,115,3.0,5.0,69,0.00,,,0.00,Wunderground v.1.15,2013-05-19 16:49:00,
2013-05-19 12:55:00,68.3,58.1,30.21,ESE,116,3.0,5.0,70,0.00,,,0.00,Wunderground v.1.15,2013-05-19 16:55:00,
2013-05-19 13:01:00,68.8,58.6,30.20,ESE,111,3.0,5.0,70,0.00,,,0.00,Wunderground v.1.15,2013-05-19 17:01:00,
2013-05-19 13:07:00,68.8,58.2,30.20,NNE,32,3.0,7.0,69,0.00,,,0.00,Wunderground v.1.15,2013-05-19 17:07:00,
2013-05-19 13:13:00,69.0,58.4,30.20,East,82,3.0,9.0,69,0.00,,,0.00,Wunderground v.1.15,2013-05-19 17:13:00,
2013-05-19 13:18:00,68.7,58.1,30.19,ESE,114,4.0,11.0,69,0.00,,,0.00,Wunderground v.1.15,2013-05-19 17:18:00,
2013-05-19 13:23:00,68.8,58.6,30.19,ESE,119,4.0,5.0,70,0.00,,,0.00,Wunderground v.1.15,2013-05-19 17:23:00,
2013-05-19 13:29:00,69.1,58.9,30.19,West,261,4.0,8.0,70,0.00,,,0.00,Wunderground v.1.15,2013-05-19 17:29:00,
2013-05-19 13:34:00,69.3,58.3,30.19,South,184,4.0,4.0,68,0.00,,,0.00,Wunderground v.1.15,2013-05-19 17:34:00,
2013-05-19 13:40:00,69.4,58.4,30.19,ESE,123,4.0,9.0,68,0.00,,,0.00,Wunderground v.1.15,2013-05-19 17:40:00,
2013-05-19 13:45:00,69.2,58.6,30.19,ESE,117,4.0,5.0,69,0.00,,,0.00,Wunderground v.1.15,2013-05-19 17:45:00,
2013-05-19 13:50:00,69.5,58.9,30.18,SE,138,4.0,6.0,69,0.00,,,0.00,Wunderground v.1.15,2013-05-19 17:50:00,
2013-05-19 13:55:00,69.9,59.3,30.18,East,91,3.0,4.0,69,0.00,,,0.00,Wunderground v.1.15,2013-05-19 17:55:00,
2013-05-19 14:01:00,70.6,59.5,30.17,ESE,117,2.0,8.0,68,0.00,,,0.00,Wunderground v.1.15,2013-05-19 18:01:00,
2013-05-19 14:07:00,70.2,58.7,30.17,East,91,3.0,8.0,67,0.00,,,0.00,Wunderground v.1.15,2013-05-19 18:07:00,
2013-05-19 14:12:00,70.4,58.9,30.17,South,174,4.0,4.0,67,0.00,,,0.00,Wunderground v.1.15,2013-05-19 18:12:00,
2013-05-19 14:17:00,70.0,59.0,30.17,SW,214,4.0,5.0,68,0.00,,,0.00,Wunderground v.1.15,2013-05-19 18:17:00,
2013-05-19 14:23:00,70.0,59.0,30.17,SE,125,3.0,4.0,68,0.00,,,0.00,Wunderground v.1.15,2013-05-19 18:23:00,
2013-05-19 14:28:00,70.2,59.1,30.16,SE,127,4.0,5.0,68,0.00,,,0.00,Wunderground v.1.15,2013-05-19 18:28:00,
2013-05-19 14:33:00,70.6,58.7,30.16,East,97,3.0,6.0,66,0.00,,,0.00,Wunderground v.1.15,2013-05-19 18:33:00,
2013-05-19 14:39:00,71.0,59.1,30.16,ENE,65,3.0,9.0,66,0.00,,,0.00,Wunderground v.1.15,2013-05-19 18:39:00,
2013-05-19 14:44:00,70.8,59.3,30.16,East,94,4.0,7.0,67,0.00,,,0.00,Wunderground v.1.15,2013-05-19 18:44:00,
2013-05-19 14:49:00,70.9,59.4,30.16,SE,143,5.0,9.0,67,0.00,,,0.00,Wunderground v.1.15,2013-05-19 18:49:00,
2013-05-19 14:55:00,71.0,58.6,30.16,ESE,116,4.0,10.0,65,0.00,,,0.00,Wunderground v.1.15,2013-05-19 18:55:00,
2013-05-19 15:01:00,71.0,59.1,30.16,ENE,68,4.0,6.0,66,0.00,,,0.00,Wunderground v.1.15,2013-05-19 19:01:00,
2013-05-19 15:07:00,71.1,59.2,30.16,SSE,153,4.0,6.0,66,0.00,,,0.00,Wunderground v.1.15,2013-05-19 19:07:00,
2013-05-19 15:13:00,71.8,59.4,30.15,ESE,117,4.0,7.0,65,0.00,,,0.00,Wunderground v.1.15,2013-05-19 19:13:00,
2013-05-19 15:18:00,72.4,59.1,30.15,ESE,117,3.0,8.0,63,0.00,,,0.00,Wunderground v.1.15,2013-05-19 19:18:00,
2013-05-19 15:23:00,72.1,59.7,30.15,SE,143,3.0,3.0,65,0.00,,,0.00,Wunderground v.1.15,2013-05-19 19:23:00,
2013-05-19 15:29:00,72.2,59.3,30.15,East,98,2.0,4.0,64,0.00,,,0.00,Wunderground v.1.15,2013-05-19 19:29:00,
2013-05-19 15:34:00,71.4,59.0,30.15,East,96,3.0,8.0,65,0.00,,,0.00,Wunderground v.1.15,2013-05-19 19:34:00,
2013-05-19 15:39:00,71.2,59.3,30.15,East,90,4.0,8.0,66,0.00,,,0.00,Wunderground v.1.15,2013-05-19 19:39:00,
2013-05-19 15:44:00,71.1,59.2,30.15,ENE,67,4.0,6.0,66,0.00,,,0.00,Wunderground v.1.15,2013-05-19 19:44:00,
2013-05-19 15:50:00,71.5,59.1,30.15,South,187,4.0,8.0,65,0.00,,,0.00,Wunderground v.1.15,2013-05-19 19:50:00,
2013-05-19 15:55:00,71.9,59.5,30.15,ESE,107,3.0,11.0,65,0.00,,,0.00,Wunderground v.1.15,2013-05-19 19:55:00,
2013-05-19 16:01:00,72.8,60.3,30.14,ESE,115,2.0,2.0,65,0.00,,,0.00,Wunderground v.1.15,2013-05-19 20:01:00,
2013-05-19 16:07:00,73.8,60.0,30.14,ESE,108,2.0,5.0,62,0.00,,,0.00,Wunderground v.1.15,2013-05-19 20:07:00,
2013-05-19 16:12:00,73.5,59.2,30.15,East,84,2.0,5.0,61,0.00,,,0.00,Wunderground v.1.15,2013-05-19 20:12:00,
2013-05-19 16:17:00,73.1,59.3,30.14,NE,56,3.0,10.0,62,0.00,,,0.00,Wunderground v.1.15,2013-05-19 20:17:00,
2013-05-19 16:23:00,72.6,58.8,30.15,ESE,117,3.0,5.0,62,0.00,,,0.00,Wunderground v.1.15,2013-05-19 20:23:00,
2013-05-19 16:28:00,71.8,59.0,30.15,ENE,61,3.0,6.0,64,0.00,,,0.00,Wunderground v.1.15,2013-05-19 20:28:00,
2013-05-19 16:33:00,71.2,58.8,30.15,ESE,116,4.0,8.0,65,0.00,,,0.00,Wunderground v.1.15,2013-05-19 20:33:00,
2013-05-19 16:39:00,70.7,58.8,30.15,ESE,118,4.0,8.0,66,0.00,,,0.00,Wunderground v.1.15,2013-05-19 20:39:00,
2013-05-19 16:44:00,71.0,59.1,30.15,NE,51,4.0,6.0,66,0.00,,,0.00,Wunderground v.1.15,2013-05-19 20:44:00,
2013-05-19 16:49:00,71.1,59.2,30.15,WSW,237,3.0,8.0,66,0.00,,,0.00,Wunderground v.1.15,2013-05-19 20:49:00,
2013-05-19 16:55:00,71.2,59.3,30.15,ENE,69,3.0,5.0,66,0.00,,,0.00,Wunderground v.1.15,2013-05-19 20:55:00,
2013-05-19 17:01:00,72.3,59.4,30.14,East,84,3.0,3.0,64,0.00,,,0.00,Wunderground v.1.15,2013-05-19 21:01:00,
2013-05-19 17:07:00,72.8,59.5,30.14,ENE,73,2.0,5.0,63,0.00,,,0.00,Wunderground v.1.15,2013-05-19 21:07:00,
2013-05-19 17:12:00,72.5,59.2,30.14,NNW,346,4.0,4.0,63,0.00,,,0.00,Wunderground v.1.15,2013-05-19 21:12:00,
2013-05-19 17:18:00,72.4,59.1,30.14,NW,309,4.0,8.0,63,0.00,,,0.00,Wunderground v.1.15,2013-05-19 21:18:00,
2013-05-19 17:23:00,72.7,59.8,30.14,SE,124,4.0,9.0,64,0.00,,,0.00,Wunderground v.1.15,2013-05-19 21:23:00,
2013-05-19 17:28:00,72.7,59.4,30.13,ESE,107,3.0,9.0,63,0.00,,,0.00,Wunderground v.1.15,2013-05-19 21:28:00,
2013-05-19 17:34:00,72.7,59.4,30.13,ESE,111,3.0,4.0,63,0.00,,,0.00,Wunderground v.1.15,2013-05-19 21:34:00,
2013-05-19 17:39:00,72.8,59.5,30.13,East,93,4.0,4.0,63,0.00,,,0.00,Wunderground v.1.15,2013-05-19 21:39:00,
2013-05-19 17:44:00,72.6,59.3,30.12,ESE,109,2.0,3.0,63,0.00,,,0.00,Wunderground v.1.15,2013-05-19 21:44:00,
2013-05-19 17:50:00,72.4,59.5,30.12,East,96,2.0,3.0,64,0.00,,,0.00,Wunderground v.1.15,2013-05-19 21:50:00,
2013-05-19 17:55:00,72.6,59.7,30.12,SSW,213,2.0,5.0,64,0.00,,,0.00,Wunderground v.1.15,2013-05-19 21:55:00,
2013-05-19 18:01:00,72.9,59.6,30.12,South,170,2.0,2.0,63,0.00,,,0.00,Wunderground v.1.15,2013-05-19 22:01:00,
2013-05-19 18:07:00,73.4,60.0,30.12,ESE,108,2.0,6.0,63,0.00,,,0.00,Wunderground v.1.15,2013-05-19 22:07:00,
2013-05-19 18:13:00,73.1,59.3,30.12,WSW,240,2.0,4.0,62,0.00,,,0.00,Wunderground v.1.15,2013-05-19 22:13:00,
2013-05-19 18:18:00,73.2,59.8,30.12,East,97,2.0,5.0,63,0.00,,,0.00,Wunderground v.1.15,2013-05-19 22:18:00,
2013-05-19 18:23:00,72.9,59.1,30.12,SSW,208,3.0,3.0,62,0.00,,,0.00,Wunderground v.1.15,2013-05-19 22:23:00,
2013-05-19 18:29:00,72.4,59.1,30.12,SSE,153,4.0,7.0,63,0.00,,,0.00,Wunderground v.1.15,2013-05-19 22:29:00,
2013-05-19 18:34:00,72.2,59.3,30.13,WSW,255,4.0,4.0,64,0.00,,,0.00,Wunderground v.1.15,2013-05-19 22:34:00,
2013-05-19 18:39:00,72.0,59.2,30.13,SW,231,3.0,6.0,64,0.00,,,0.00,Wunderground v.1.15,2013-05-19 22:39:00,
2013-05-19 18:45:00,71.8,59.0,30.13,NW,316,3.0,4.0,64,0.00,,,0.00,Wunderground v.1.15,2013-05-19 22:45:00,
2013-05-19 18:50:00,71.7,59.3,30.13,ENE,78,2.0,4.0,65,0.00,,,0.00,Wunderground v.1.15,2013-05-19 22:50:00,
2013-05-19 18:56:00,71.3,58.9,30.13,West,267,2.0,5.0,65,0.00,,,0.00,Wunderground v.1.15,2013-05-19 22:56:00,
2013-05-19 19:01:00,71.2,59.3,30.13,WNW,294,3.0,3.0,66,0.00,,,0.00,Wunderground v.1.15,2013-05-19 23:01:00,
2013-05-19 19:07:00,70.9,59.4,30.13,NW,309,2.0,7.0,67,0.00,,,0.00,Wunderground v.1.15,2013-05-19 23:07:00,
2013-05-19 19:12:00,70.6,59.1,30.13,WSW,250,2.0,3.0,67,0.00,,,0.00,Wunderground v.1.15,2013-05-19 23:12:00,
2013-05-19 19:17:00,70.4,58.9,30.13,South,182,2.0,5.0,67,0.00,,,0.00,Wunderground v.1.15,2013-05-19 23:17:00,
2013-05-19 19:23:00,70.2,59.1,30.13,WSW,252,3.0,3.0,68,0.00,,,0.00,Wunderground v.1.15,2013-05-19 23:23:00,
2013-05-19 19:28:00,70.1,59.0,30.14,WSW,238,2.0,4.0,68,0.00,,,0.00,Wunderground v.1.15,2013-05-19 23:28:00,
2013-05-19 19:33:00,69.8,59.2,30.13,SW,232,2.0,2.0,69,0.00,,,0.00,Wunderground v.1.15,2013-05-19 23:33:00,
2013-05-19 19:39:00,69.4,58.8,30.14,West,264,2.0,3.0,69,0.00,,,0.00,Wunderground v.1.15,2013-05-19 23:39:00,
2013-05-19 19:44:00,69.1,58.9,30.13,WSW,240,2.0,7.0,70,0.00,,,0.00,Wunderground v.1.15,2013-05-19 23:44:00,
2013-05-19 19:49:00,68.8,58.6,30.13,WSW,247,3.0,7.0,70,0.00,,,0.00,Wunderground v.1.15,2013-05-19 23:49:00,
2013-05-19 19:55:00,68.6,58.8,30.13,SSE,150,2.0,3.0,71,0.00,,,0.00,Wunderground v.1.15,2013-05-19 23:55:00,
2013-05-19 20:01:00,68.4,58.6,30.14,East,83,2.0,2.0,71,0.00,,,0.00,Wunderground v.1.15,2013-05-20 00:01:00,
2013-05-19 20:07:00,68.0,58.6,30.14,ENE,68,2.0,2.0,72,0.00,,,0.00,Wunderground v.1.15,2013-05-20 00:07:00,
2013-05-19 20:12:00,67.8,58.4,30.14,West,264,2.0,2.0,72,0.00,,,0.00,Wunderground v.1.15,2013-05-20 00:12:00,
2013-05-19 20:17:00,67.6,58.6,30.13,East,81,1.0,2.0,73,0.00,,,0.00,Wunderground v.1.15,2013-05-20 00:17:00,
2013-05-19 20:22:00,67.0,58.1,30.14,SE,135,1.0,1.0,73,0.00,,,0.00,Wunderground v.1.15,2013-05-20 00:22:00,
2013-05-19 20:28:00,66.3,58.1,30.14,SE,130,1.0,4.0,75,0.00,,,0.00,Wunderground v.1.15,2013-05-20 00:28:00,
2013-05-19 20:33:00,65.9,58.1,30.14,SE,138,2.0,4.0,76,0.00,,,0.00,Wunderground v.1.15,2013-05-20 00:33:00,
2013-05-19 20:38:00,65.6,57.8,30.14,East,97,1.0,4.0,76,0.00,,,0.00,Wunderground v.1.15,2013-05-20 00:38:00,
2013-05-19 20:43:00,65.2,57.8,30.14,SE,124,1.0,2.0,77,0.00,,,0.00,Wunderground v.1.15,2013-05-20 00:43:00,
2013-05-19 20:49:00,65.0,58.0,30.14,ESE,115,1.0,2.0,78,0.00,,,0.00,Wunderground v.1.15,2013-05-20 00:49:00,
2013-05-19 20:54:00,64.9,57.9,30.14,SSW,197,1.0,2.0,78,0.00,,,0.00,Wunderground v.1.15,2013-05-20 00:54:00,
2013-05-19 21:01:00,64.9,57.9,30.14,East,100,1.0,1.0,78,0.00,,,0.00,Wunderground v.1.15,2013-05-20 01:01:00,
2013-05-19 21:07:00,64.9,58.2,30.14,WNW,298,0.0,4.0,79,0.00,,,0.00,Wunderground v.1.15,2013-05-20 01:07:00,
2013-05-19 21:12:00,65.1,58.1,30.14,ESE,105,1.0,1.0,78,0.00,,,0.00,Wunderground v.1.15,2013-05-20 01:12:00,
2013-05-19 21:18:00,65.4,58.4,30.14,SE,132,1.0,3.0,78,0.00,,,0.00,Wunderground v.1.15,2013-05-20 01:18:00,
2013-05-19 21:23:00,65.6,58.6,30.15,ESE,108,1.0,1.0,78,0.00,,,0.00,Wunderground v.1.15,2013-05-20 01:23:00,
2013-05-19 21:28:00,65.8,58.4,30.14,ESE,119,1.0,1.0,77,0.00,,,0.00,Wunderground v.1.15,2013-05-20 01:28:00,
2013-05-19 21:34:00,65.8,58.4,30.14,SW,218,1.0,2.0,77,0.00,,,0.00,Wunderground v.1.15,2013-05-20 01:34:00,
2013-05-19 21:39:00,65.9,58.5,30.14,WSW,256,1.0,3.0,77,0.00,,,0.00,Wunderground v.1.15,2013-05-20 01:39:00,
2013-05-19 21:44:00,65.7,58.3,30.14,ESE,106,1.0,3.0,77,0.00,,,0.00,Wunderground v.1.15,2013-05-20 01:44:00,
2013-05-19 21:49:00,65.5,58.5,30.14,SSE,167,1.0,3.0,78,0.00,,,0.00,Wunderground v.1.15,2013-05-20 01:49:00,
2013-05-19 21:55:00,65.3,58.3,30.14,ESE,110,1.0,2.0,78,0.00,,,0.00,Wunderground v.1.15,2013-05-20 01:55:00,
2013-05-19 22:01:00,65.2,58.5,30.14,West,276,1.0,1.0,79,0.00,,,0.00,Wunderground v.1.15,2013-05-20 02:01:00,
2013-05-19 22:07:00,65.0,58.3,30.14,ESE,122,1.0,4.0,79,0.00,,,0.00,Wunderground v.1.15,2013-05-20 02:07:00,
2013-05-19 22:13:00,65.0,58.3,30.15,SSE,167,1.0,2.0,79,0.00,,,0.00,Wunderground v.1.15,2013-05-20 02:13:00,
2013-05-19 22:18:00,65.0,58.3,30.15,SSE,156,1.0,3.0,79,0.00,,,0.00,Wunderground v.1.15,2013-05-20 02:18:00,
2013-05-19 22:23:00,64.9,58.2,30.15,East,79,1.0,1.0,79,0.00,,,0.00,Wunderground v.1.15,2013-05-20 02:23:00,
2013-05-19 22:29:00,64.9,58.2,30.15,SW,233,0.0,2.0,79,0.00,,,0.00,Wunderground v.1.15,2013-05-20 02:29:00,
2013-05-19 22:34:00,64.7,58.0,30.15,WNW,290,1.0,1.0,79,0.00,,,0.00,Wunderground v.1.15,2013-05-20 02:34:00,
2013-05-19 22:39:00,64.7,58.4,30.15,SE,136,1.0,2.0,80,0.00,,,0.00,Wunderground v.1.15,2013-05-20 02:39:00,
2013-05-19 22:45:00,65.2,58.5,30.14,NW,312,2.0,3.0,79,0.00,,,0.00,Wunderground v.1.15,2013-05-20 02:45:00,
2013-05-19 22:50:00,65.4,58.7,30.15,East,86,2.0,3.0,79,0.00,,,0.00,Wunderground v.1.15,2013-05-20 02:50:00,
2013-05-19 22:55:00,65.4,58.4,30.15,WSW,238,2.0,5.0,78,0.00,,,0.00,Wunderground v.1.15,2013-05-20 02:55:00,
2013-05-19 23:01:00,65.4,58.4,30.15,East,96,2.0,2.0,78,0.00,,,0.00,Wunderground v.1.15,2013-05-20 03:01:00,
2013-05-19 23:07:00,65.5,58.5,30.15,SSW,213,2.0,4.0,78,0.00,,,0.00,Wunderground v.1.15,2013-05-20 03:07:00,
2013-05-19 23:12:00,65.5,58.5,30.15,NNW,340,2.0,2.0,78,0.00,,,0.00,Wunderground v.1.15,2013-05-20 03:12:00,
2013-05-19 23:17:00,65.4,58.4,30.15,West,268,1.0,2.0,78,0.00,,,0.00,Wunderground v.1.15,2013-05-20 03:17:00,
2013-05-19 23:23:00,65.4,58.7,30.15,West,278,1.0,2.0,79,0.00,,,0.00,Wunderground v.1.15,2013-05-20 03:23:00,
2013-05-19 23:28:00,65.4,58.4,30.15,SSE,167,2.0,5.0,78,0.00,,,0.00,Wunderground v.1.15,2013-05-20 03:28:00,
2013-05-19 23:33:00,65.4,58.7,30.14,East,92,2.0,3.0,79,0.00,,,0.00,Wunderground v.1.15,2013-05-20 03:33:00,
2013-05-19 23:38:00,65.3,58.6,30.14,ESE,103,2.0,6.0,79,0.00,,,0.00,Wunderground v.1.15,2013-05-20 03:38:00,
2013-05-19 23:44:00,65.3,58.6,30.14,WSW,238,1.0,6.0,79,0.00,,,0.00,Wunderground v.1.15,2013-05-20 03:44:00,
2013-05-19 23:49:00,65.2,58.5,30.14,SSE,164,2.0,6.0,79,0.00,,,0.00,Wunderground v.1.15,2013-05-20 03:49:00,
2013-05-19 23:54:00,65.2,58.5,30.14,WSW,252,1.0,2.0,79,0.00,,,0.00,Wunderground v.1.15,2013-05-20 03:54:00,